Weather in Vladivostok

Russia / Primorsky Krai     43°06′55″N   131°53′07″E
temp.,
°C
wind,
m/s
gust,
m/s
humid.,
%
clouds,
%
prec.,
mm/h
press.,
hPa
HPBL,
m
12 may, wed
wed1201:00+7se1014924 0.0 1021316
04:00+7se10149024 0.0 1019291
07:00+7se10158982 0.0 1019371
10:00+7se13179198 0.0 1018384
13:00+7se141794100 0.0 1018366
16:00+7se141793100 0.0 1016328
19:00+7se131792100 0.4 1015261
22:00+8se101493100 0.4 1016227
13 may, thu
thu1301:00+8se111494100 0.0 1016183
04:00+7se81195100 0.0 1015166
07:00+8se81194100 0.0 1015161
10:00+8se7993100 0.0 1015128
13:00+8sse4694100 0.0 101570
16:00+8sse5793100 0.0 101379
19:00+8se5592100 0.0 101353
22:00+8sse339167 0.0 101426
14 may, fri
fri1401:00+8sse22895 0.0 101410
04:00+8ssw22896 0.0 101410
07:00+8e119072 0.0 101410
10:00+9sse22875 0.0 101514
13:00+10s338732 0.0 101432
16:00+10s4587100 0.0 101345
19:00+10sse3389100 0.0 101328
22:00+10sse4491100 0.0 101434
15 may, sat
sat1501:00+9se7896100 0.5 101375
04:00+8sse6109765 0.9 1012102
07:00+8se6999100 0.0 1012110
10:00+8se71099100 0.0 1011121
13:00+8sse6999100 0.0 1010106
16:00+8se7999100 0.0 100997
19:00+8se23100100 0.0 100849
22:00+8wsw01100100 0.1 100912
16 may, sun
sun1601:00+11n81296100 1.4 1008128
04:00+10n5788100 3.0 100874
07:00+9nw5587100 0.3 100839
10:00+10nw3484100 0.3 100920
13:00+12nw126845 0.0 100822
16:00+13sw2266100 0.0 100735
19:00+12sw227594 0.0 100716
22:00+11w227764 0.0 100914